This demonstration page uses our WeatherBlox Daily Observations layout. Learn more.

Left ArrowRight Arrow

Hourly Observations for December 4, 2022

Temp ( °F °C ) Dew Point ( °F °C ) Humidity (%) Winds ( mph kmh ) Pressure ( in mb ) Visibility ( mi km ) Precip ( " mm )
12:15 am 00:15 Clear 41 5 32 0 70 70 NNW 5 7 30.27 1025 10 16 0.00 0.00
12:35 am 00:35 Clear 41 5 32 0 70 70 WNW 3 6 30.27 1025 10 16 0.00 0.00
12:55 am 00:55 Clear 41 5 32 0 70 70 N 8 13 30.27 1025 10 16 0.00 0.00
1:15 am 01:15 Clear 39 4 32 0 75 75 NNE 3 6 30.28 1026 10 16 0.00 0.00
1:35 am 01:35 Clear 37 3 32 0 81 81 Calm 30.29 1026 10 16 0.00 0.00
1:55 am 01:55 Clear 37 3 32 0 81 81 N 5 7 30.30 1026 10 16 0.00 0.00
2:15 am 02:15 Clear 37 3 32 0 81 81 Calm 30.32 1027 10 16 0.00 0.00
2:35 am 02:35 Clear 34 1 32 0 93 93 NNW 5 7 30.31 1026 10 16 0.00 0.00
2:55 am 02:55 Clear 37 3 32 0 81 81 Calm 30.31 1026 10 16 0.00 0.00
3:15 am 03:15 Clear 36 2 32 0 87 87 Calm 30.32 1027 10 16 0.00 0.00
3:35 am 03:35 Clear 36 2 30 -1 80 80 Calm 30.32 1027 10 16 0.00 0.00
3:55 am 03:55 Clear 36 2 30 -1 80 80 N 3 6 30.31 1026 10 16 0.00 0.00
4:15 am 04:15 Clear 36 2 30 -1 80 80 N 5 7 30.31 1026 10 16 0.00 0.00
4:35 am 04:35 Clear 36 2 30 -1 80 80 N 5 7 30.31 1026 10 16 0.00 0.00
4:55 am 04:55 Clear 36 2 30 -1 80 80 N 6 9 30.31 1026 10 16 0.00 0.00
5:15 am 05:15 Clear 32 0 30 -1 93 93 N 5 7 30.31 1026 10 16 0.00 0.00
5:35 am 05:35 Clear 34 1 28 -2 80 80 Calm 30.31 1026 10 16 0.00 0.00
5:55 am 05:55 Clear 32 0 30 -1 93 93 NW 5 7 30.31 1026 10 16 0.00 0.00
6:15 am 06:15 Clear 32 0 28 -2 86 86 NNW 6 9 30.31 1026 10 16 0.00 0.00
6:35 am 06:35 Clear 32 0 28 -2 86 86 NW 5 7 30.31 1026 10 16 0.00 0.00
6:55 am 06:55 Clear 32 0 28 -2 86 86 NW 7 11 30.32 1027 10 16 0.00 0.00
7:15 am 07:15 Sunny 32 0 28 -2 86 86 W 3 6 30.32 1027 10 16 0.00 0.00
7:35 am 07:35 Sunny 32 0 28 -2 86 86 Calm 30.32 1027 10 16 0.00 0.00
7:55 am 07:55 Sunny 32 0 30 -1 93 93 Calm 30.32 1027 10 16 0.00 0.00
8:15 am 08:15 Sunny 36 2 28 -2 75 75 Calm 30.32 1027 10 16 0.00 0.00
8:35 am 08:35 Sunny 36 2 30 -1 80 80 WNW 5 7 30.32 1027 10 16 0.00 0.00
8:55 am 08:55 Sunny 36 2 30 -1 80 80 NW 5 7 30.32 1027 10 16 0.00 0.00
9:15 am 09:15 Sunny 37 3 30 -1 75 75 NNW 7 11 30.33 1027 10 16 0.00 0.00
9:35 am 09:35 Sunny 37 3 30 -1 75 75 NNW 12 19 30.32 1027 10 16 0.00 0.00
9:55 am 09:55 Sunny 37 3 30 -1 75 75 NW 8 13 30.33 1027 10 16 0.00 0.00
10:15 am 10:15 Sunny 37 3 30 -1 75 75 NNW 9 15 30.32 1027 10 16 0.00 0.00
10:35 am 10:35 Sunny 39 4 30 -1 70 70 NW 8 13 30.32 1027 10 16 0.00 0.00
10:55 am 10:55 Sunny 41 5 28 -2 60 60 NNW 8 13 30.30 1026 10 16 0.00 0.00
12:35 pm 12:35 Sunny 41 5 27 -3 56 56 Calm 30.27 1025 10 16 0.00 0.00
12:55 pm 12:55 Sunny 43 6 23 -5 45 45 N 7 11 30.25 1024 10 16 0.00 0.00
1:15 pm 13:15 Sunny 43 6 23 -5 45 45 WNW 3 6 30.25 1024 10 16 0.00 0.00
1:35 pm 13:35 Sunny 43 6 23 -5 45 45 WNW 6 9 30.24 1024 10 16 0.00 0.00
1:55 pm 13:55 Sunny 45 7 23 -5 42 42 NNW 8 13 30.24 1024 10 16 0.00 0.00
2:15 pm 14:15 Sunny 45 7 23 -5 42 42 W 7 11 30.24 1024 10 16 0.00 0.00
2:35 pm 14:35 Sunny 45 7 23 -5 42 42 W 7 11 30.24 1024 10 16 0.00 0.00
2:55 pm 14:55 Sunny 45 7 23 -5 42 42 W 6 9 30.24 1024 10 16 0.00 0.00
3:15 pm 15:15 Sunny 45 7 23 -5 42 42 W 5 7 30.23 1024 10 16 0.00 0.00
3:35 pm 15:35 Sunny 45 7 23 -5 42 42 W 3 6 30.23 1024 10 16 0.00 0.00
3:55 pm 15:55 Sunny 45 7 21 -6 39 39 Calm 30.22 1023 10 16 0.00 0.00
4:15 pm 16:15 Sunny 43 6 23 -5 45 45 Calm 30.22 1023 10 16 0.00 0.00
4:35 pm 16:35 Sunny 41 5 23 -5 48 48 Calm 30.22 1023 10 16 0.00 0.00
4:55 pm 16:55 Clear 41 5 23 -5 48 48 Calm 30.22 1023 10 16 0.00 0.00
5:15 pm 17:15 Clear 41 5 23 -5 48 48 Calm 30.24 1024 10 16 0.00 0.00
5:35 pm 17:35 Clear 39 4 23 -5 52 52 Calm 30.25 1024 10 16 0.00 0.00
5:55 pm 17:55 Clear 39 4 23 -5 52 52 ENE 3 6 30.25 1024 10 16 0.00 0.00
6:15 pm 18:15 Clear 37 3 25 -4 60 60 Calm 30.24 1024 10 16 0.00 0.00
6:35 pm 18:35 Clear 37 3 25 -4 60 60 S 3 6 30.23 1024 10 16 0.00 0.00
6:55 pm 18:55 Clear 34 1 27 -3 75 75 Calm 30.24 1024 10 16 0.00 0.00
7:15 pm 19:15 Clear 34 1 27 -3 75 75 Calm 30.26 1025 10 16 0.00 0.00
7:35 pm 19:35 Clear 34 1 27 -3 75 75 NNW 3 6 30.26 1025 10 16 0.00 0.00
7:55 pm 19:55 Clear 34 1 27 -3 75 75 N 5 7 30.26 1025 10 16 0.00 0.00
8:15 pm 20:15 Clear 32 0 27 -3 80 80 SSW 3 6 30.25 1024 10 16 0.00 0.00
8:35 pm 20:35 Clear 32 0 27 -3 80 80 Calm 30.25 1024 10 16 0.00 0.00
8:55 pm 20:55 Clear 32 0 27 -3 80 80 Calm 30.24 1024 10 16 0.00 0.00
9:15 pm 21:15 Clear 32 0 27 -3 80 80 Calm 30.24 1024 10 16 0.00 0.00
9:35 pm 21:35 Clear 30 -1 27 -3 86 86 Calm 30.25 1025 10 16 0.00 0.00
9:55 pm 21:55 Clear 30 -1 27 -3 86 86 Calm 30.25 1025 10 16 0.00 0.00
10:15 pm 22:15 Clear 30 -1 27 -3 86 86 Calm 30.25 1025 10 16 0.00 0.00
10:35 pm 22:35 Clear 28 -2 27 -3 93 93 Calm 30.26 1025 10 16 0.00 0.00
10:55 pm 22:55 Clear 28 -2 27 -3 93 93 Calm 30.26 1025 10 16 0.00 0.00
11:15 pm 23:15 Clear 28 -2 27 -3 93 93 Calm 30.25 1024 10 16 0.00 0.00
11:35 pm 23:35 Clear 28 -2 27 -3 93 93 Calm 30.25 1024 10 16 0.00 0.00
11:55 pm 23:55 Clear 28 -2 27 -3 93 93 Calm 30.25 1024 10 16 0.00 0.00

Powered by AerisWeather